User: anonymous   Login
Location: Andrest
(43.3200°N, 0.0641°E)
Time: 06:43:40
(UTC+00:00)
Language:

Cosmos 1151 Rocket - Orbit

View from above orbital plane
View from above orbital plane
View from above satellite
View from above satellite

Ground track
Ground track

The orbit data is extracted from the following two-line orbital elements,

1 11672U 80005B   21058.79882295  .00000107  00000-0  88692-5 0  9992
2 11672  82.5129 243.4673 0017547 145.4419 214.7943 14.88032553224385
Epoch (UTC): 27 February 2021 19:10:18
Eccentricity: 0.0017547
inclination: 82.5129°
perigee height: 592 km
apogee height: 616 km
right ascension of ascending node: 243.4673°
argument of perigee: 145.4419°
revolutions per day: 14.88032553
mean anomaly at epoch: 214.7943°
orbit number at epoch: 22438

The dashed part of the orbit path shows where the satellite is in the earth's shadow,  

DLR